Regional Weather Roundup
Issued by NWS State College, PA

Home | Current Version | Previous Version | Text Only | Print | Product List | Glossary On
Versions: 1 2 3 4 5 6 7 8 9 10 11 12 13 14 15 16 17 18 19 20 21 22 23 24 25 26 27 28 29 30 31 32 33 34 35 36 37 38 39 40 41 42 43 44 45 46 47 48 49 50
000
ASUS41 KCTP 241510
RWRCTP

REGIONAL WEATHER ROUNDUP
NATIONAL WEATHER SERVICE STATE COLLEGE PA
1100 AM EDT THU JUL 24 2014

Note: "fair" indicates few or no clouds below 12,000 feet with no
significant weather and/or obstructions to visibility.

* = STATION THAT DOES NOT REPORT PRECIPITATION /E.G. RAIN...SNOW...ETC/
    THUNDER OR FOG.

PAZ002>004-007>009-013>016-020>023-029>032-241600-
WESTERN PENNSYLVANIA

CITY           SKY/WX    TMP DP  RH WIND       PRES   REMARKS
ERIE           PTSUNNY   68  54  60 N14G22    30.07R
MEADVILLE      PTSUNNY   66  54  65 N6        30.06S
FRANKLIN*      PTSUNNY   66  52  59 N5        30.06S
NEW CASTLE       N/A     68  56  65 N3        30.05S
BEAVER COUNTY  PTSUNNY   68  55  64 N5        30.03F
BUTLER*        PTSUNNY   66  54  63 NE9       30.05R
PITTSBURGH INT PTSUNNY   69  55  60 N14       30.02S
PITTSBURGH     PTSUNNY   66  55  68 VRB6      30.01S
INDIANA*       PTSUNNY   68  54  60 NE8       30.06R
LATROBE        PTSUNNY   70  57  64 N9        30.02S
WASHINGTON CO* PTSUNNY   70  57  64 NE8       30.03S
$$

PAZ004>006-010>012-017>019-024>028-033>037-041-042-045-046-049>053-241600-
CENTRAL PENNSYLVANIA

CITY           SKY/WX    TMP DP  RH WIND       PRES   REMARKS
BRADFORD       CLOUDY    63  51  65 N9        30.05R
DUBOIS         CLOUDY    68  52  56 N6        30.03R
CLEARFIELD     CLOUDY    67  52  58 N8        30.03R
JOHNSTOWN      MOSUNNY   66  52  60 VRB6      30.02S
ALTOONA        PTSUNNY   69  56  62 N7        30.01R
STATE COLLEGE  PTSUNNY   68  55  64 NE7       30.00R
WILLIAMSPORT   PTSUNNY   73  54  51 VRB5      29.96S
SELINSGROVE    MOSUNNY   74  58  57 N12       29.96R
FT INDIANTOWN  PTSUNNY   74  58  57 NE7       29.95R
CAPITAL CITY   MOSUNNY   72  58  61 NW7       29.95R
HARRISBURG     PTSUNNY   74  59  59 NW7       29.94
YORK           PTSUNNY   72  60  66 N6        29.94S
$$

PAZ038>040-043-044-047-048-054-055-060>062-067>071-241600-
EASTERN PENNSYLVANIA

CITY           SKY/WX    TMP DP  RH WIND       PRES   REMARKS
SCRANTON       PTSUNNY   73  51  46 N15G25    29.95R
MOUNT POCONO   PTSUNNY   67  53  61 NW13G22   29.96R
ALLENTOWN      PTSUNNY   74  58  57 N16       29.92R
QUAKERTOWN*    PTSUNNY   72  59  64 W6        29.93R
READING        PTSUNNY   74  58  57 N13       29.92R
LANCASTER      PTSUNNY   73  60  63 N8        29.94R
COATESVILLE    CLOUDY    70  61  73 N7        29.95R
POTTSTOWN      PTSUNNY   72  60  66 NW8       29.93R
BLUE BELL      CLOUDY    73  63  68 NW3       29.90R
DOYLESTOWN     CLOUDY    72  61  68 N7        29.90R
WILLOW GROVE   NOT AVBL
NORTH PHILA    CLOUDY    76  60  57 N10       29.91R
PHILADELPHIA   CLOUDY    75  58  55 N13       29.90R
$$


USA.gov is the U.S. government's official web portal to all federal, state and local government web resources and services.